Погода в Чутановке

Россия / Тамбовская область     52°36′11″N   42°45′01″E
темп.,
°C
ветер,
м/с
пор.,
м/с
влажн.,
%
обл.,
%
осадки,
мм/ч
давл.,
гПа
погр.,
м
18 мая, вт
вт1800:00+17вюв5155475 0.0 1012242
03:00+16вюв5135414 0.0 1012177
06:00+16вюв512645 0.0 1011205
09:00+23вюв6105213 0.0 1010392
12:00+27вюв7124780 0.0 1009984
15:00+27вюв815470 0.0 10091362
18:00+24вюв715520 0.0 1008409
21:00+21юв718485 0.0 1008462
19 мая, ср
ср1900:00+16ююв4670100 0.0 100988
03:00+16юв227796 0.0 100921
06:00+17ююз2382100 0.0 1009101
09:00+20в1270100 0.0 1009515
12:00+24вюв575095 0.0 10081066
15:00+27вюв610495 0.0 10071988
18:00+24ююв3665100 0.0 1006158
21:00+19зюз347672 0.0 100757
20 мая, чт
чт2000:00+17ю2389100 1.0 100884
03:00+14ююз499290 1.1 1009382
06:00+13ююв369181 1.1 1010419
09:00+17ююв687297 1.1 10101184
12:00+18ююв686599 0.2 10101498
15:00+17ю5875100 1.0 1010990
18:00+17ююз577435 0.3 1010787
21:00+13ююз37905 0.8 1011119
21 мая, пт
пт2100:00+12ююз37962 0.0 1011169
03:00+11юз389718 0.0 1012196
06:00+12юз4992100 0.0 1014347
09:00+16юз797210 0.0 1015972
12:00+19зюз7106361 0.0 10161470
15:00+21зюз6858100 0.3 10161671
18:00+20з226974 0.2 1016252
21:00+16в2280100 0.6 101821
22 мая, сб
сб2200:00+16вюв358294 0.0 101785
03:00+15вюв4982100 0.1 1016176
06:00+16вюв7167999 0.1 1015482
09:00+21ююв7156599 0.1 1014854
12:00+25ю8135278 0.0 10131581
15:00+26ююз694968 0.0 10131861
18:00+24ю2465100 0.0 1013116
21:00+20юз1171100 0.0 101411